Weather History for KLUM - October, 2012

Change the Weather History Date:

Saturday, October 13, 2012

  Actual Average (KEAU) Record (KEAU)
Temperature  
Mean Temperature 44 °F 48 °F  
Max Temperature 50 °F 59 °F 84 °F (1956)
Min Temperature 39 °F 38 °F 17 °F (1917)
Degree Days  
Heating Degree Days 20 17  
Month to date heating degree days 188  
Since 1 July heating degree days 421  
Cooling Degree Days 0 0  
Month to date cooling degree days 0  
Year to date cooling degree days 575  
Moisture  
Dew Point 42 °F    
Average Humidity 90    
Maximum Humidity 100    
Minimum Humidity 37    
Precipitation  
Precipitation 0.11 in 0.07 in 1.23 in (1908)
Month to date precipitation 1.15  
Year to date precipitation 26.95  
Snow  
Snow 0.00 in 0.10 in 1.00 in (1939)
Month to date snowfall 0.1  
Since 1 July snowfall 0.1  
Since 1 September snowfall 0.1  
Snow Depth -    
Sea Level Pressure  
Sea Level Pressure 29.83 in    
Wind  
Wind Speed 7 mph (East)    
Max Wind Speed 13 mph    
Max Gust Speed 17 mph    
Visibility 5 miles    
Events Rain , Thunderstorm    
T = Trace of Precipitation, MM = Missing Value Source: NWS Daily Summary

Daily Weather History Graph

Daily Weather History Graph

Search for Another Location

Airport or City:

Trip Planner

Search our weather history database for the weather conditions in past years. The results will help you decide how hot, cold, wet, or windy it might be!

Date:

Astronomy

Oct. 13, 2012 Rise Set
Actual Time 7:21 AM CDT 6:25 PM CDT
Civil Twilight 6:51 AM CDT 6:54 PM CDT
Nautical Twilight 6:17 AM CDT 7:28 PM CDT
Astronomical Twilight 5:43 AM CDT 8:02 PM CDT
Moon 5:07 AM CDT (10/13) 5:11 PM CDT (10/13)
Length of Visible Light 12h 03m
Length of Day
11h 04m
Waning Crescent, 5% of the Moon is Illuminated
Oct 13
Waning Crescent
Oct 15
New
Oct 21
First Quarter
Oct 29
Full
Nov 6
Last Quarter

Hourly Weather History & Observations

Time (CDT) Temp. Windchill Dew Point Humidity Pressure Visibility Wind Dir Wind Speed Gust Speed Precip Events Conditions
12:15 AM 42.8 °F 38.6 °F 19.4 °F 39% 30.09 in 10.0 mi ESE 6.9 mph - N/A   Overcast
12:35 AM 44.6 °F 40.7 °F 19.4 °F 37% 30.09 in 10.0 mi ESE 6.9 mph - N/A   Overcast
12:55 AM 44.6 °F 41.4 °F 21.2 °F 39% 30.08 in 10.0 mi ESE 5.8 mph - N/A   Overcast
1:15 AM 44.6 °F 38.8 °F 30.2 °F 57% 30.08 in 10.0 mi SSE 11.5 mph 17.3 mph N/A Thunderstorm Unknown
1:55 AM 42.8 °F 36.2 °F 33.8 °F 70% 30.05 in 7.0 mi SE 12.7 mph - N/A Thunderstorm Overcast
2:15 AM 42.8 °F 37.0 °F 33.8 °F 70% 30.04 in 10.0 mi ESE 10.4 mph - N/A   Overcast
2:35 AM 41.0 °F 34.7 °F 35.6 °F 81% 30.03 in 7.0 mi ESE 10.4 mph - N/A Rain Rain
2:55 AM 41.0 °F 36.4 °F 35.6 °F 81% 30.02 in 10.0 mi ESE 6.9 mph - N/A   Overcast
3:35 AM 41.0 °F 35.8 °F 37.4 °F 87% 30.00 in 7.0 mi East 8.1 mph - N/A   Overcast
3:55 AM 39.2 °F 32.5 °F 37.4 °F 93% 29.98 in 2.5 mi ESE 10.4 mph - N/A   Overcast
4:15 AM 39.2 °F 33.0 °F 37.4 °F 93% 29.96 in 2.5 mi East 9.2 mph - N/A   Drizzle
4:35 AM 39.2 °F 32.5 °F 37.4 °F 93% 29.95 in 2.0 mi ESE 10.4 mph - N/A   Light Drizzle
5:35 AM 41.0 °F 35.8 °F 39.2 °F 93% 29.93 in 2.0 mi ESE 8.1 mph - 0.01 in   Light Drizzle
5:55 AM 41.0 °F 35.2 °F 39.2 °F 93% 29.91 in 2.0 mi ESE 9.2 mph - 0.01 in Thunderstorm Overcast
6:15 AM 41.0 °F 36.4 °F 41.0 °F 100% 29.89 in 2.0 mi ESE 6.9 mph - N/A   Overcast
6:35 AM 41.0 °F 34.7 °F 41.0 °F 100% 29.88 in 3.0 mi SE 10.4 mph - N/A   Overcast
6:55 AM 42.8 °F 38.6 °F 41.0 °F 93% 29.88 in 2.5 mi ESE 6.9 mph - N/A   Overcast
7:15 AM 42.8 °F 38.6 °F 41.0 °F 93% 29.88 in 2.5 mi SE 6.9 mph - N/A Thunderstorm Overcast
7:55 AM 42.8 °F 40.1 °F 41.0 °F 93% 29.87 in 1.8 mi ESE 4.6 mph - N/A   Light Drizzle
8:15 AM 42.8 °F 38.6 °F 41.0 °F 93% 29.86 in 1.5 mi ESE 6.9 mph - N/A   Light Drizzle
8:35 AM 42.8 °F 38.0 °F 42.8 °F 100% 29.86 in 1.8 mi ESE 8.1 mph - N/A   Light Drizzle
8:55 AM 42.8 °F 38.0 °F 42.8 °F 100% 29.85 in 1.2 mi ESE 8.1 mph - N/A   Overcast
9:15 AM 42.8 °F 38.0 °F 42.8 °F 100% 29.84 in 1.0 mi ESE 8.1 mph - N/A   Overcast
9:35 AM 42.8 °F 38.0 °F 42.8 °F 100% 29.85 in 1.2 mi ESE 8.1 mph - N/A   Overcast
9:55 AM 42.8 °F 38.0 °F 42.8 °F 100% 29.84 in 1.5 mi ESE 8.1 mph - N/A   Overcast
10:15 AM 42.8 °F 38.6 °F 42.8 °F 100% 29.84 in 2.5 mi East 6.9 mph - N/A   Overcast
10:55 AM 44.6 °F 40.7 °F 42.8 °F 93% 29.80 in 1.8 mi ESE 6.9 mph - 0.01 in   Overcast
11:35 AM 44.6 °F 40.2 °F 44.6 °F 100% 29.79 in 4.0 mi SE 8.1 mph - N/A   Drizzle
11:55 AM 44.6 °F 40.7 °F 44.6 °F 100% 29.79 in 5.0 mi ESE 6.9 mph - N/A Rain Light Rain
12:15 PM 46.4 °F 44.3 °F 44.6 °F 93% 29.79 in 5.0 mi ESE 4.6 mph - N/A   Drizzle
12:35 PM 46.4 °F 43.5 °F 44.6 °F 93% 29.78 in 7.0 mi ESE 5.8 mph - N/A   Light Drizzle
12:55 PM 46.4 °F 44.3 °F 46.4 °F 100% 29.76 in 7.0 mi East 4.6 mph - N/A   Overcast
1:15 PM 46.4 °F 44.3 °F 46.4 °F 100% 29.75 in 7.0 mi East 4.6 mph - 0.01 in   Light Drizzle
1:35 PM 46.4 °F 45.2 °F 46.4 °F 100% 29.74 in 3.0 mi ENE 3.5 mph - 0.01 in Rain Rain
1:55 PM 46.4 °F 45.2 °F 46.4 °F 100% 29.73 in 4.0 mi ENE 3.5 mph - 0.01 in   Light Drizzle
2:15 PM 46.4 °F 45.2 °F 46.4 °F 100% 29.72 in 4.0 mi ENE 3.5 mph - N/A   Light Drizzle
2:35 PM 48.2 °F - 46.4 °F 93% 29.71 in 1.8 mi East 3.5 mph - N/A Rain Rain
2:55 PM 48.2 °F - 46.4 °F 93% 29.71 in 1.8 mi NE 3.5 mph - 0.02 in   Drizzle
3:15 PM 48.2 °F - 46.4 °F 93% 29.71 in 2.0 mi ENE 3.5 mph - 0.01 in   Drizzle
3:35 PM 48.2 °F - 48.2 °F 100% 29.71 in 1.8 mi East 5.8 mph - 0.03 in Rain Rain
3:55 PM 50.0 °F - 48.2 °F 94% 29.71 in 2.0 mi ENE 3.5 mph - 0.05 in Rain Rain
4:15 PM 50.0 °F - 48.2 °F 94% 29.71 in 4.0 mi Calm Calm - 0.01 in Rain Light Rain
4:55 PM 50.0 °F - 48.2 °F 94% 29.70 in 2.5 mi ENE 3.5 mph - 0.01 in   Overcast
5:15 PM 50.0 °F - 48.2 °F 94% 29.70 in 5.0 mi ENE 4.6 mph - N/A   Overcast
5:35 PM 50.0 °F - 48.2 °F 94% 29.71 in 5.0 mi NNE 3.5 mph - N/A   Overcast
5:55 PM 50.0 °F - 48.2 °F 94% 29.71 in 5.0 mi NNE 3.5 mph - N/A   Overcast
6:15 PM 50.0 °F - 48.2 °F 94% 29.71 in 5.0 mi North 4.6 mph - N/A   Overcast
6:35 PM 48.2 °F - 48.2 °F 100% 29.71 in 5.0 mi NNE 4.6 mph - N/A   Overcast
7:55 PM 48.2 °F - 46.4 °F 93% 29.74 in 4.0 mi Calm Calm - N/A   Overcast
8:15 PM 48.2 °F - 46.4 °F 93% 29.73 in 5.0 mi North 4.6 mph - N/A   Overcast
8:35 PM 48.2 °F - 46.4 °F 93% 29.73 in 5.0 mi North 6.9 mph - N/A   Overcast
9:15 PM 48.2 °F - 46.4 °F 93% 29.75 in 10.0 mi NNE 4.6 mph - N/A   Overcast
9:35 PM 48.2 °F - 46.4 °F 93% 29.74 in 7.0 mi NNE 3.5 mph - N/A Rain Light Rain
9:55 PM 48.2 °F - 46.4 °F 93% 29.73 in 7.0 mi North 6.9 mph - N/A   Overcast
10:15 PM 48.2 °F - 46.4 °F 93% 29.74 in 10.0 mi North 5.8 mph - N/A   Overcast
10:35 PM 48.2 °F - 46.4 °F 93% 29.75 in 10.0 mi North 5.8 mph - N/A   Overcast
10:55 PM 48.2 °F - 46.4 °F 93% 29.76 in 10.0 mi NNW 9.2 mph - N/A   Overcast
11:15 PM 48.2 °F - 46.4 °F 93% 29.76 in 10.0 mi NNW 5.8 mph - N/A   Overcast
11:35 PM 48.2 °F - 46.4 °F 93% 29.74 in 7.0 mi North 4.6 mph - N/A   Overcast